Time,TemperatureF,DewpointF,PressureIn,WindDirection,WindDirectionDegrees,WindSpeedMPH,WindSpeedGustMPH,Humidity,HourlyPrecipIn,Conditions,Clouds,dailyrainin,SoftwareType,DateUTC
2013-05-22 00:03:00,66.3,62.0,29.68,WSW,240,2.0,4.0,86,0.00,,,0.00,weatherlink.com 1.10,2013-05-22 05:03:00,
2013-05-22 00:18:00,66.0,62.0,29.68,NW,314,2.0,2.0,87,0.00,,,0.00,weatherlink.com 1.10,2013-05-22 05:18:00,
2013-05-22 00:33:00,65.7,62.0,29.68,NNW,327,1.0,3.0,88,0.00,,,0.00,weatherlink.com 1.10,2013-05-22 05:33:00,
2013-05-22 00:48:00,65.4,62.0,29.68,NW,308,1.0,4.0,89,0.00,,,0.00,weatherlink.com 1.10,2013-05-22 05:48:00,
2013-05-22 01:03:00,65.6,62.0,29.68,NW,309,4.0,8.0,88,0.00,,,0.00,weatherlink.com 1.10,2013-05-22 06:03:00,
2013-05-22 01:18:00,65.9,62.0,29.68,NNW,330,2.0,8.0,86,0.00,,,0.00,weatherlink.com 1.10,2013-05-22 06:18:00,
2013-05-22 01:33:00,66.0,61.0,29.66,West,271,3.0,5.0,85,0.00,,,0.00,weatherlink.com 1.10,2013-05-22 06:33:00,
2013-05-22 01:48:00,65.7,62.0,29.66,West,266,0.0,2.0,86,0.00,,,0.00,weatherlink.com 1.10,2013-05-22 06:48:00,
2013-05-22 02:03:00,65.2,61.0,29.67,NW,320,2.0,3.0,87,0.00,,,0.00,weatherlink.com 1.10,2013-05-22 07:03:00,
2013-05-22 02:18:00,65.2,62.0,29.66,NW,323,1.0,3.0,88,0.00,,,0.00,weatherlink.com 1.10,2013-05-22 07:18:00,
2013-05-22 02:33:00,65.0,62.0,29.66,West,280,1.0,3.0,89,0.00,,,0.00,weatherlink.com 1.10,2013-05-22 07:33:00,
2013-05-22 02:48:00,64.8,62.0,29.66,NNW,328,1.0,5.0,89,0.00,,,0.00,weatherlink.com 1.10,2013-05-22 07:48:00,
2013-05-22 03:03:00,64.7,62.0,29.65,NW,323,2.0,4.0,90,0.00,,,0.00,weatherlink.com 1.10,2013-05-22 08:03:00,
2013-05-22 03:18:00,64.7,62.0,29.65,WNW,300,1.0,7.0,90,0.00,,,0.00,weatherlink.com 1.10,2013-05-22 08:18:00,
2013-05-22 03:33:00,64.2,62.0,29.65,NNE,28,1.0,8.0,92,0.00,,,0.00,weatherlink.com 1.10,2013-05-22 08:33:00,
2013-05-22 03:48:00,63.5,62.0,29.64,NNW,330,0.0,3.0,93,0.00,,,0.00,weatherlink.com 1.10,2013-05-22 08:48:00,
2013-05-22 04:03:00,63.1,61.0,29.64,NNE,28,0.0,2.0,94,0.00,,,0.00,weatherlink.com 1.10,2013-05-22 09:03:00,
2013-05-22 04:18:00,63.2,62.0,29.64,NE,44,2.0,5.0,95,0.00,,,0.00,weatherlink.com 1.10,2013-05-22 09:18:00,
2013-05-22 04:33:00,62.7,61.0,29.63,West,273,3.0,3.0,94,0.00,,,0.00,weatherlink.com 1.10,2013-05-22 09:33:00,
2013-05-22 04:48:00,-999.0,-99.9,29.63,North,-999,-999.0,-999.0,-999,0.00,,,0.00,weatherlink.com 1.10,2013-05-22 09:48:00,
2013-05-22 05:03:00,-999.0,-99.9,29.63,North,-999,-999.0,-999.0,-999,0.00,,,0.00,weatherlink.com 1.10,2013-05-22 10:03:00,
2013-05-22 05:18:00,-999.0,-99.9,29.63,North,-999,-999.0,-999.0,-999,0.00,,,0.00,weatherlink.com 1.10,2013-05-22 10:18:00,
2013-05-22 05:33:00,-999.0,-99.9,29.64,North,-999,-999.0,-999.0,-999,0.00,,,0.00,weatherlink.com 1.10,2013-05-22 10:33:00,
2013-05-22 05:48:00,-999.0,-99.9,29.64,North,-999,-999.0,-999.0,-999,0.00,,,0.00,weatherlink.com 1.10,2013-05-22 10:48:00,
2013-05-22 06:04:00,-999.0,-99.9,29.65,North,-999,-999.0,-999.0,-999,0.00,,,0.00,weatherlink.com 1.10,2013-05-22 11:04:00,
2013-05-22 06:19:00,-999.0,-99.9,29.65,North,-999,-999.0,-999.0,-999,0.00,,,0.00,weatherlink.com 1.10,2013-05-22 11:19:00,
2013-05-22 06:34:00,-999.0,-99.9,29.66,North,-999,-999.0,-999.0,-999,0.00,,,0.00,weatherlink.com 1.10,2013-05-22 11:34:00,
2013-05-22 06:49:00,-999.0,-99.9,29.67,North,-999,-999.0,-999.0,-999,0.00,,,0.00,weatherlink.com 1.10,2013-05-22 11:49:00,
2013-05-22 07:04:00,-999.0,-99.9,29.67,North,-999,-999.0,-999.0,-999,0.00,,,0.00,weatherlink.com 1.10,2013-05-22 12:04:00,
2013-05-22 07:19:00,-999.0,-99.9,29.67,North,-999,-999.0,-999.0,-999,0.00,,,0.00,weatherlink.com 1.10,2013-05-22 12:19:00,
2013-05-22 07:34:00,62.7,60.0,29.67,North,8,2.0,5.0,92,0.00,,,0.00,weatherlink.com 1.10,2013-05-22 12:34:00,
2013-05-22 07:49:00,63.0,60.0,29.68,NW,319,2.0,8.0,91,0.00,,,0.00,weatherlink.com 1.10,2013-05-22 12:49:00,
2013-05-22 08:04:00,63.5,60.0,29.68,NNE,32,3.0,11.0,88,0.00,,,0.00,weatherlink.com 1.10,2013-05-22 13:04:00,
2013-05-22 08:19:00,64.1,60.0,29.68,North,352,5.0,9.0,85,0.00,,,0.00,weatherlink.com 1.10,2013-05-22 13:19:00,
2013-05-22 08:34:00,64.5,60.0,29.69,WNW,292,3.0,7.0,85,0.00,,,0.00,weatherlink.com 1.10,2013-05-22 13:34:00,
2013-05-22 08:49:00,64.6,59.0,29.69,NNE,33,3.0,8.0,83,0.00,,,0.00,weatherlink.com 1.10,2013-05-22 13:49:00,
2013-05-22 09:04:00,65.1,59.0,29.69,NE,41,8.0,8.0,80,0.00,,,0.00,weatherlink.com 1.10,2013-05-22 14:04:00,
2013-05-22 09:19:00,65.5,59.0,29.70,East,97,3.0,8.0,80,0.00,,,0.00,weatherlink.com 1.10,2013-05-22 14:19:00,
2013-05-22 09:34:00,66.4,59.0,29.69,North,8,5.0,8.0,76,0.00,,,0.00,weatherlink.com 1.10,2013-05-22 14:34:00,
2013-05-22 09:49:00,67.2,60.0,29.69,NW,304,3.0,9.0,77,0.00,,,0.00,weatherlink.com 1.10,2013-05-22 14:49:00,
2013-05-22 10:04:00,68.4,57.0,29.69,NNW,333,2.0,11.0,67,0.00,,,0.00,weatherlink.com 1.10,2013-05-22 15:04:00,
2013-05-22 10:19:00,69.2,57.0,29.69,North,5,3.0,10.0,65,0.00,,,0.00,weatherlink.com 1.10,2013-05-22 15:19:00,
2013-05-22 10:34:00,70.2,58.0,29.70,NE,34,2.0,10.0,65,0.00,,,0.00,weatherlink.com 1.10,2013-05-22 15:34:00,
2013-05-22 10:50:00,70.8,58.0,29.70,NE,39,4.0,10.0,64,0.00,,,0.00,weatherlink.com 1.10,2013-05-22 15:50:00,
2013-05-22 11:05:00,71.0,56.0,29.70,NW,314,6.0,10.0,60,0.00,,,0.00,weatherlink.com 1.10,2013-05-22 16:05:00,
2013-05-22 11:20:00,70.2,56.0,29.70,NW,315,4.0,13.0,61,0.00,,,0.00,weatherlink.com 1.10,2013-05-22 16:20:00,
2013-05-22 11:35:00,69.3,57.0,29.71,North,360,4.0,9.0,65,0.00,,,0.00,weatherlink.com 1.10,2013-05-22 16:35:00,
2013-05-22 11:50:00,71.4,57.0,29.70,NNE,30,3.0,11.0,60,0.00,,,0.00,weatherlink.com 1.10,2013-05-22 16:50:00,
2013-05-22 12:05:00,69.6,57.0,29.71,NNW,347,3.0,10.0,65,0.00,,,0.00,weatherlink.com 1.10,2013-05-22 17:05:00,
2013-05-22 12:20:00,69.4,58.0,29.71,ENE,57,7.0,14.0,68,0.00,,,0.00,weatherlink.com 1.10,2013-05-22 17:20:00,
2013-05-22 12:35:00,68.7,57.0,29.71,NE,46,6.0,13.0,66,0.00,,,0.00,weatherlink.com 1.10,2013-05-22 17:35:00,
2013-05-22 12:51:00,68.4,59.0,29.71,North,351,2.0,10.0,71,0.00,,,0.00,weatherlink.com 1.10,2013-05-22 17:51:00,
2013-05-22 13:05:00,69.6,59.0,29.71,NW,308,2.0,16.0,69,0.00,,,0.00,weatherlink.com 1.10,2013-05-22 18:05:00,
2013-05-22 13:20:00,69.3,58.0,29.72,NE,37,2.0,10.0,68,0.00,,,0.00,weatherlink.com 1.10,2013-05-22 18:20:00,
2013-05-22 13:50:00,69.5,57.0,29.72,NE,54,8.0,19.0,65,0.00,,,0.00,weatherlink.com 1.10,2013-05-22 18:50:00,
2013-05-22 14:05:00,69.2,56.0,29.72,NNE,30,11.0,15.0,64,0.00,,,0.00,weatherlink.com 1.10,2013-05-22 19:05:00,
2013-05-22 14:20:00,70.4,57.0,29.72,NNE,27,8.0,15.0,63,0.00,,,0.00,weatherlink.com 1.10,2013-05-22 19:20:00,
2013-05-22 14:35:00,69.9,57.0,29.73,NE,41,10.0,12.0,63,0.00,,,0.00,weatherlink.com 1.10,2013-05-22 19:35:00,
2013-05-22 14:50:00,69.0,56.0,29.73,NE,54,6.0,15.0,64,0.00,,,0.00,weatherlink.com 1.10,2013-05-22 19:50:00,
2013-05-22 15:05:00,68.7,55.0,29.73,NE,34,9.0,16.0,63,0.00,,,0.00,weatherlink.com 1.10,2013-05-22 20:05:00,
2013-05-22 15:20:00,68.8,56.0,29.73,North,355,9.0,14.0,63,0.00,,,0.00,weatherlink.com 1.10,2013-05-22 20:20:00,
2013-05-22 15:35:00,68.7,56.0,29.73,NE,44,10.0,18.0,65,0.00,,,0.00,weatherlink.com 1.10,2013-05-22 20:35:00,
2013-05-22 15:50:00,68.9,56.0,29.73,NNE,30,7.0,12.0,64,0.00,,,0.00,weatherlink.com 1.10,2013-05-22 20:50:00,
2013-05-22 16:05:00,68.6,56.0,29.73,NNE,26,3.0,16.0,64,0.00,,,0.00,weatherlink.com 1.10,2013-05-22 21:05:00,
2013-05-22 16:20:00,67.8,56.0,29.73,NNE,15,5.0,14.0,65,0.00,,,0.00,weatherlink.com 1.10,2013-05-22 21:20:00,
2013-05-22 16:35:00,67.3,56.0,29.73,NNE,19,6.0,13.0,67,0.00,,,0.00,weatherlink.com 1.10,2013-05-22 21:35:00,
2013-05-22 16:50:00,66.8,55.0,29.74,NNW,344,3.0,13.0,67,0.00,,,0.00,weatherlink.com 1.10,2013-05-22 21:50:00,
2013-05-22 17:05:00,67.1,55.0,29.74,ENE,70,4.0,16.0,66,0.00,,,0.00,weatherlink.com 1.10,2013-05-22 22:05:00,
2013-05-22 17:20:00,67.1,56.0,29.74,NE,36,12.0,13.0,68,0.00,,,0.00,weatherlink.com 1.10,2013-05-22 22:20:00,
2013-05-22 17:35:00,66.4,56.0,29.74,NNE,30,5.0,13.0,69,0.00,,,0.00,weatherlink.com 1.10,2013-05-22 22:35:00,
2013-05-22 17:50:00,66.0,56.0,29.75,North,349,8.0,17.0,70,0.00,,,0.00,weatherlink.com 1.10,2013-05-22 22:50:00,
2013-05-22 18:05:00,65.7,56.0,29.75,North,5,6.0,15.0,71,0.00,,,0.00,weatherlink.com 1.10,2013-05-22 23:05:00,
2013-05-22 18:20:00,65.4,56.0,29.75,NE,50,5.0,12.0,72,0.00,,,0.00,weatherlink.com 1.10,2013-05-22 23:20:00,
2013-05-22 18:35:00,64.8,56.0,29.76,NE,37,7.0,13.0,73,0.00,,,0.00,weatherlink.com 1.10,2013-05-22 23:35:00,
2013-05-22 18:50:00,64.5,56.0,29.76,NNW,347,4.0,11.0,73,0.00,,,0.00,weatherlink.com 1.10,2013-05-22 23:50:00,
2013-05-22 19:06:00,64.2,56.0,29.77,NNE,25,7.0,9.0,75,0.00,,,0.00,weatherlink.com 1.10,2013-05-23 00:06:00,
2013-05-22 19:20:00,64.1,56.0,29.77,North,8,4.0,12.0,74,0.00,,,0.00,weatherlink.com 1.10,2013-05-23 00:20:00,
2013-05-22 19:35:00,64.1,56.0,29.77,NNE,21,4.0,15.0,74,0.00,,,0.00,weatherlink.com 1.10,2013-05-23 00:35:00,
2013-05-22 19:50:00,63.9,55.0,29.78,NW,309,4.0,9.0,74,0.00,,,0.00,weatherlink.com 1.10,2013-05-23 00:50:00,
2013-05-22 20:05:00,63.9,55.0,29.78,North,4,3.0,12.0,74,0.00,,,0.00,weatherlink.com 1.10,2013-05-23 01:05:00,
2013-05-22 20:20:00,63.7,56.0,29.79,NNE,32,4.0,9.0,75,0.00,,,0.00,weatherlink.com 1.10,2013-05-23 01:20:00,
2013-05-22 20:35:00,63.5,55.0,29.79,NE,54,4.0,11.0,75,0.00,,,0.00,weatherlink.com 1.10,2013-05-23 01:35:00,
2013-05-22 20:50:00,63.4,55.0,29.80,ENE,65,5.0,10.0,75,0.00,,,0.00,weatherlink.com 1.10,2013-05-23 01:50:00,
2013-05-22 21:06:00,63.2,55.0,29.80,ENE,72,6.0,8.0,75,0.00,,,0.00,weatherlink.com 1.10,2013-05-23 02:06:00,
2013-05-22 21:21:00,63.0,55.0,29.80,NNE,17,9.0,11.0,75,0.00,,,0.00,weatherlink.com 1.10,2013-05-23 02:21:00,
2013-05-22 21:36:00,63.0,55.0,29.81,NNE,32,4.0,9.0,75,0.00,,,0.00,weatherlink.com 1.10,2013-05-23 02:36:00,
2013-05-22 21:51:00,62.7,55.0,29.82,NE,49,2.0,7.0,76,0.00,,,0.00,weatherlink.com 1.10,2013-05-23 02:51:00,
2013-05-22 22:07:00,62.6,55.0,29.82,ENE,57,4.0,10.0,76,0.00,,,0.00,weatherlink.com 1.10,2013-05-23 03:07:00,
2013-05-22 22:21:00,62.5,55.0,29.83,NNW,347,4.0,8.0,77,0.00,,,0.00,weatherlink.com 1.10,2013-05-23 03:21:00,
2013-05-22 22:36:00,62.4,55.0,29.83,North,351,4.0,9.0,77,0.00,,,0.00,weatherlink.com 1.10,2013-05-23 03:36:00,
2013-05-22 22:51:00,62.3,55.0,29.83,North,9,5.0,8.0,77,0.00,,,0.00,weatherlink.com 1.10,2013-05-23 03:51:00,
2013-05-22 23:06:00,62.0,55.0,29.83,NNW,347,5.0,6.0,77,0.00,,,0.00,weatherlink.com 1.10,2013-05-23 04:06:00,